PGT3YH LTFJ-LTAI

Flight info

Callsign PGT3YH
Flight time 0h 42m
Altitude 35000
Route ROXUK1X/24L ROXUK UN617 IRGAK UM855 LEMDA/N0393F270 A16 EKSEN EKSEN1U
Aircraft A21N/M-SDE2E3FGHIRWXY/LB1

Departure

Time 2026-05-06 15:32
Airport Istanbul Sabiha Gökçen International Airport (LTFJ)

Arrival

Time 2026-05-06 16:14
Airport Antalya International Airport (LTAI)
Time Latitude Longitude Altitude Speed Heading
2026-05-06 14:58 40.90710 29.31853 316 ft 0 kts 334°
2026-05-06 15:18 40.90707 29.31855 316 ft 3 kts 334°
2026-05-06 15:18 40.90682 29.31870 316 ft 4 kts 336°
2026-05-06 15:18 40.90657 29.31883 314 ft 4 kts 343°
2026-05-06 15:18 40.90631 29.31890 315 ft 4 kts
2026-05-06 15:19 40.90612 29.31880 315 ft 2 kts 59°
2026-05-06 15:19 40.90611 29.31878 315 ft 1 kts 62°
2026-05-06 15:21 40.90612 29.31894 314 ft 3 kts 106°
2026-05-06 15:22 40.90592 29.31930 316 ft 6 kts 144°
2026-05-06 15:22 40.90543 29.31960 316 ft 9 kts 155°
2026-05-06 15:22 40.90484 29.32005 316 ft 10 kts 134°
2026-05-06 15:22 40.90499 29.32103 316 ft 13 kts 62°
2026-05-06 15:23 40.90542 29.32218 316 ft 15 kts 63°
2026-05-06 15:23 40.90586 29.32353 316 ft 17 kts 85°
2026-05-06 15:23 40.90512 29.32469 316 ft 19 kts 157°
2026-05-06 15:23 40.90384 29.32545 316 ft 21 kts 153°
2026-05-06 15:24 40.90264 29.32535 314 ft 22 kts 255°
2026-05-06 15:24 40.90197 29.32345 316 ft 24 kts 239°
2026-05-06 15:24 40.90129 29.32164 316 ft 4 kts 244°
2026-05-06 15:24 40.90113 29.32122 316 ft 5 kts 244°
2026-05-06 15:25 40.90112 29.32118 316 ft 0 kts 244°
2026-05-06 15:26 40.90106 29.32103 316 ft 3 kts 244°
2026-05-06 15:26 40.90089 29.32064 316 ft 7 kts 223°
2026-05-06 15:27 40.90035 29.32064 316 ft 10 kts 153°
2026-05-06 15:27 40.89966 29.32107 316 ft 12 kts 154°
2026-05-06 15:27 40.89883 29.32160 315 ft 14 kts 153°
2026-05-06 15:27 40.89793 29.32220 312 ft 15 kts 154°
2026-05-06 15:28 40.89694 29.32284 308 ft 16 kts 154°
2026-05-06 15:28 40.89583 29.32347 310 ft 18 kts 167°
2026-05-06 15:28 40.89498 29.32427 308 ft 16 kts 79°
2026-05-06 15:28 40.89545 29.32571 309 ft 18 kts 64°
2026-05-06 15:29 40.89603 29.32726 305 ft 19 kts 64°
2026-05-06 15:29 40.89662 29.32886 301 ft 20 kts 63°
2026-05-06 15:29 40.89728 29.33063 296 ft 21 kts 64°
2026-05-06 15:29 40.89797 29.33246 296 ft 23 kts 64°
2026-05-06 15:30 40.89871 29.33445 303 ft 26 kts 64°
2026-05-06 15:30 40.89953 29.33673 313 ft 29 kts 64°
2026-05-06 15:30 40.90020 29.33864 322 ft 19 kts 89°
2026-05-06 15:30 40.89923 29.33964 323 ft 20 kts 152°
2026-05-06 15:31 40.89857 29.33971 322 ft 10 kts 229°
2026-05-06 15:31 40.89771 29.33745 309 ft 64 kts 244°
2026-05-06 15:31 40.89468 29.32930 304 ft 131 kts 244°
2026-05-06 15:32 40.88422 29.30146 926 ft 177 kts 243°
2026-05-06 15:32 40.87743 29.28805 1646 ft 177 kts 220°
2026-05-06 15:32 40.86546 29.28255 2145 ft 192 kts 186°
2026-05-06 15:32 40.85238 29.27775 2753 ft 208 kts 213°
2026-05-06 15:33 40.84051 29.26546 3404 ft 230 kts 219°
2026-05-06 15:33 40.82701 29.25234 4080 ft 248 kts 217°
2026-05-06 15:33 40.81256 29.23902 5027 ft 256 kts 218°
2026-05-06 15:33 40.79769 29.22552 5988 ft 263 kts 218°
2026-05-06 15:34 40.78230 29.21178 6921 ft 269 kts 216°
2026-05-06 15:34 40.76492 29.20186 7788 ft 279 kts 192°
2026-05-06 15:34 40.74509 29.20294 8544 ft 295 kts 163°
2026-05-06 15:34 40.72608 29.21377 9406 ft 302 kts 153°
2026-05-06 15:35 40.70709 29.22647 10320 ft 309 kts 153°
2026-05-06 15:35 40.68714 29.23970 10785 ft 332 kts 153°
2026-05-06 15:35 40.66561 29.25359 11223 ft 354 kts 154°
2026-05-06 15:35 40.64341 29.26764 11942 ft 363 kts 154°
2026-05-06 15:36 40.62036 29.28202 12824 ft 368 kts 154°
2026-05-06 15:36 40.59695 29.29655 13745 ft 373 kts 154°
2026-05-06 15:36 40.57329 29.31118 14544 ft 377 kts 154°
2026-05-06 15:36 40.54931 29.32604 15335 ft 382 kts 154°
2026-05-06 15:37 40.52517 29.34101 16126 ft 386 kts 154°
2026-05-06 15:37 40.50063 29.35622 16881 ft 391 kts 154°
2026-05-06 15:37 40.47684 29.37288 17627 ft 395 kts 145°
2026-05-06 15:37 40.45490 29.39477 18376 ft 398 kts 140°
2026-05-06 15:38 40.43294 29.41806 19018 ft 403 kts 140°
2026-05-06 15:38 40.41133 29.44095 19626 ft 407 kts 140°
2026-05-06 15:38 40.38902 29.46439 20238 ft 412 kts 140°
2026-05-06 15:38 40.36640 29.48806 20863 ft 417 kts 140°
2026-05-06 15:39 40.34348 29.51189 21472 ft 421 kts 141°
2026-05-06 15:39 40.32043 29.53577 22076 ft 425 kts 141°
2026-05-06 15:39 40.29727 29.55986 22676 ft 429 kts 141°
2026-05-06 15:39 40.27357 29.58453 23276 ft 433 kts 141°
2026-05-06 15:40 40.25016 29.60884 23807 ft 438 kts 141°
2026-05-06 15:40 40.22582 29.63312 24290 ft 442 kts 146°
2026-05-06 15:40 40.19847 29.65170 24760 ft 445 kts 160°
2026-05-06 15:40 40.16833 29.66156 25253 ft 447 kts 172°
2026-05-06 15:41 40.13746 29.66784 25726 ft 450 kts 173°
2026-05-06 15:41 40.10633 29.67388 26213 ft 454 kts 173°
2026-05-06 15:41 40.07504 29.68009 26681 ft 457 kts 173°
2026-05-06 15:41 40.04366 29.68650 27135 ft 460 kts 173°
2026-05-06 15:42 40.01195 29.69310 27565 ft 464 kts 173°
2026-05-06 15:42 39.97981 29.69979 27957 ft 468 kts 173°
2026-05-06 15:42 39.94744 29.70653 28352 ft 472 kts 173°
2026-05-06 15:42 39.91469 29.71340 28760 ft 475 kts 172°
2026-05-06 15:43 39.88266 29.72317 29140 ft 481 kts 162°
2026-05-06 15:43 39.85182 29.74051 29532 ft 485 kts 151°
2026-05-06 15:43 39.82377 29.76516 29937 ft 488 kts 140°
2026-05-06 15:43 39.79789 29.79409 30390 ft 487 kts 137°
2026-05-06 15:44 39.77317 29.82346 30740 ft 489 kts 136°
2026-05-06 15:44 39.74599 29.85001 31208 ft 487 kts 150°
2026-05-06 15:44 39.71540 29.86869 31727 ft 484 kts 159°
2026-05-06 15:44 39.68398 29.88490 32156 ft 484 kts 160°
2026-05-06 15:45 39.65264 29.90084 32581 ft 484 kts 159°
2026-05-06 15:45 39.62132 29.91702 32991 ft 484 kts 159°
2026-05-06 15:45 39.59007 29.93336 33374 ft 484 kts 159°
2026-05-06 15:45 39.55884 29.94970 33778 ft 483 kts 159°
2026-05-06 15:46 39.52806 29.96578 34126 ft 483 kts 159°
2026-05-06 15:46 39.49697 29.98217 34447 ft 482 kts 159°
2026-05-06 15:46 39.46586 29.99869 34774 ft 482 kts 159°
2026-05-06 15:46 39.43490 30.01523 35041 ft 482 kts 159°
2026-05-06 15:47 39.37290 30.04816 35085 ft 480 kts 159°
2026-05-06 15:47 39.31128 30.08079 35071 ft 480 kts 159°
2026-05-06 15:48 39.24944 30.11350 35070 ft 480 kts 159°
2026-05-06 15:48 39.18694 30.14370 35070 ft 478 kts 161°
2026-05-06 15:49 39.12520 30.17474 35075 ft 479 kts 158°
2026-05-06 15:49 39.06317 30.20579 35073 ft 478 kts 164°
2026-05-06 15:50 38.99914 30.22887 35075 ft 477 kts 165°
2026-05-06 15:50 38.93610 30.25540 35077 ft 478 kts 162°
2026-05-06 15:51 38.87363 30.28529 35076 ft 476 kts 158°
2026-05-06 15:51 38.81324 30.31747 34886 ft 467 kts 161°
2026-05-06 15:52 38.78230 30.33208 34567 ft 476 kts 162°
2026-05-06 15:52 38.75083 30.34626 34311 ft 479 kts 162°
2026-05-06 15:52 38.71938 30.36029 33979 ft 480 kts 162°
2026-05-06 15:52 38.68773 30.37442 33501 ft 480 kts 162°
2026-05-06 15:53 38.65656 30.38840 32988 ft 480 kts 162°
2026-05-06 15:53 38.62540 30.40349 32481 ft 478 kts 159°
2026-05-06 15:53 38.59471 30.41936 31933 ft 473 kts 160°
2026-05-06 15:53 38.56401 30.43441 31412 ft 469 kts 161°
2026-05-06 15:54 38.53326 30.44861 30834 ft 468 kts 162°
2026-05-06 15:54 38.50250 30.46241 30253 ft 467 kts 162°
2026-05-06 15:54 38.47186 30.47602 29591 ft 466 kts 162°
2026-05-06 15:54 38.44166 30.48944 28947 ft 465 kts 162°
2026-05-06 15:55 38.41108 30.50286 28285 ft 463 kts 164°
2026-05-06 15:55 38.38022 30.51467 27659 ft 461 kts 165°
2026-05-06 15:55 38.34950 30.52659 27038 ft 458 kts 164°
2026-05-06 15:55 38.31963 30.53906 26426 ft 454 kts 163°
2026-05-06 15:56 38.28989 30.55206 25830 ft 449 kts 162°
2026-05-06 15:56 38.26123 30.56752 25270 ft 445 kts 155°
2026-05-06 15:56 38.23319 30.58413 24718 ft 440 kts 157°
2026-05-06 15:56 38.20504 30.59895 24143 ft 436 kts 160°
2026-05-06 15:57 38.17648 30.60993 23568 ft 431 kts 168°
2026-05-06 15:57 38.14740 30.61876 22911 ft 426 kts 167°
2026-05-06 15:57 38.11883 30.62887 22328 ft 422 kts 165°
2026-05-06 15:57 38.09093 30.64017 21746 ft 418 kts 163°
2026-05-06 15:58 38.06354 30.65200 21183 ft 414 kts 162°
2026-05-06 15:58 38.03639 30.66397 20627 ft 410 kts 162°
2026-05-06 15:58 38.01000 30.67562 20110 ft 405 kts 162°
2026-05-06 15:58 37.98344 30.68730 19608 ft 401 kts 162°
2026-05-06 15:59 37.95721 30.69882 19139 ft 395 kts 162°
2026-05-06 15:59 37.93135 30.71017 18655 ft 391 kts 162°
2026-05-06 15:59 37.90587 30.72143 18163 ft 387 kts 162°
2026-05-06 15:59 37.88045 30.73260 17683 ft 382 kts 162°
2026-05-06 16:00 37.85544 30.74356 17219 ft 378 kts 162°
2026-05-06 16:00 37.83097 30.75425 16758 ft 374 kts 162°
2026-05-06 16:00 37.80636 30.76504 16306 ft 370 kts 162°
2026-05-06 16:00 37.78223 30.77555 15866 ft 366 kts 163°
2026-05-06 16:01 37.75714 30.78176 15079 ft 370 kts 177°
2026-05-06 16:01 37.73125 30.78371 14393 ft 372 kts 179°
2026-05-06 16:01 37.70576 30.78523 13909 ft 368 kts 179°
2026-05-06 16:01 37.68026 30.78698 13359 ft 365 kts 178°
2026-05-06 16:02 37.65499 30.78889 12654 ft 360 kts 178°
2026-05-06 16:02 37.63009 30.79085 12013 ft 355 kts 178°
2026-05-06 16:02 37.60600 30.79281 11547 ft 345 kts 177°
2026-05-06 16:02 37.58255 30.79475 11133 ft 330 kts 177°
2026-05-06 16:03 37.56000 30.79661 10740 ft 316 kts 177°
2026-05-06 16:03 37.53846 30.79840 10454 ft 304 kts 177°
2026-05-06 16:03 37.51754 30.80014 10103 ft 300 kts 177°
2026-05-06 16:03 37.49677 30.80186 9691 ft 299 kts 177°
2026-05-06 16:04 37.47582 30.80358 9144 ft 303 kts 177°
2026-05-06 16:04 37.45501 30.80528 8809 ft 298 kts 177°
2026-05-06 16:04 37.43424 30.80698 8303 ft 300 kts 177°
2026-05-06 16:04 37.41339 30.80866 7933 ft 298 kts 177°
2026-05-06 16:05 37.39314 30.81030 7621 ft 293 kts 177°
2026-05-06 16:05 37.37259 30.81196 7273 ft 291 kts 177°
2026-05-06 16:05 37.35272 30.81357 6864 ft 291 kts 177°
2026-05-06 16:05 37.33242 30.81522 6462 ft 291 kts 177°
2026-05-06 16:06 37.31231 30.81687 6123 ft 287 kts 177°
2026-05-06 16:06 37.29243 30.81851 5748 ft 286 kts 177°
2026-05-06 16:06 37.27264 30.82014 5409 ft 283 kts 176°
2026-05-06 16:06 37.25973 30.82122 5189 ft 280 kts 176°
2026-05-06 16:07 37.24045 30.82284 4800 ft 274 kts 176°
2026-05-06 16:07 37.22186 30.82506 4613 ft 260 kts 173°
2026-05-06 16:07 37.20444 30.82761 4584 ft 245 kts 175°
2026-05-06 16:07 37.18776 30.82819 4465 ft 234 kts 182°
2026-05-06 16:08 37.17197 30.82714 4369 ft 220 kts 184°
2026-05-06 16:08 37.15711 30.82574 4165 ft 212 kts 185°
2026-05-06 16:08 37.14239 30.82395 4014 ft 213 kts 185°
2026-05-06 16:08 37.12769 30.82200 3953 ft 212 kts 186°
2026-05-06 16:09 37.11303 30.81986 3865 ft 213 kts 186°
2026-05-06 16:09 37.09822 30.81760 3695 ft 215 kts 186°
2026-05-06 16:09 37.08343 30.81543 3489 ft 211 kts 185°
2026-05-06 16:09 37.06919 30.81354 3312 ft 198 kts 185°
2026-05-06 16:10 37.05589 30.81199 3094 ft 191 kts 184°
2026-05-06 16:10 37.04280 30.81130 2817 ft 186 kts 180°
2026-05-06 16:10 37.02990 30.81085 2540 ft 183 kts 183°
2026-05-06 16:10 37.01735 30.80908 2280 ft 179 kts 187°
2026-05-06 16:11 37.00557 30.80692 2099 ft 165 kts 187°
2026-05-06 16:11 36.99441 30.80541 1829 ft 158 kts 185°
2026-05-06 16:11 36.98376 30.80401 1560 ft 150 kts 186°
2026-05-06 16:11 36.97365 30.80247 1372 ft 140 kts 185°
2026-05-06 16:12 36.96411 30.80110 1060 ft 137 kts 185°
2026-05-06 16:12 36.95459 30.79992 898 ft 141 kts 184°
2026-05-06 16:12 36.94486 30.79850 754 ft 140 kts 184°
2026-05-06 16:12 36.93520 30.79733 622 ft 139 kts 182°
2026-05-06 16:13 36.92540 30.79635 426 ft 142 kts 184°
2026-05-06 16:13 36.91547 30.79487 249 ft 142 kts 185°
2026-05-06 16:13 36.90631 30.79357 197 ft 113 kts 186°
2026-05-06 16:13 36.90041 30.79276 197 ft 62 kts 185°
2026-05-06 16:14 36.89769 30.79237 202 ft 26 kts 188°
2026-05-06 16:14 36.89586 30.79231 206 ft 27 kts 165°
2026-05-06 16:14 36.89416 30.79332 203 ft 13 kts 152°
2026-05-06 16:14 36.89444 30.79411 205 ft 13 kts 16°
2026-05-06 16:15 36.89544 30.79425 199 ft 16 kts
2026-05-06 16:15 36.89660 30.79439 199 ft 18 kts
2026-05-06 16:15 36.89789 30.79455 197 ft 20 kts
2026-05-06 16:15 36.89930 30.79474 199 ft 21 kts
2026-05-06 16:16 36.90085 30.79496 209 ft 23 kts
2026-05-06 16:16 36.90252 30.79520 196 ft 25 kts
2026-05-06 16:16 36.90432 30.79546 205 ft 27 kts
2026-05-06 16:16 36.90624 30.79572 197 ft 29 kts
2026-05-06 16:17 36.90830 30.79601 197 ft 30 kts
2026-05-06 16:17 36.91045 30.79631 199 ft 32 kts
2026-05-06 16:17 36.91182 30.79652 204 ft 10 kts
2026-05-06 16:17 36.91261 30.79662 207 ft 13 kts
2026-05-06 16:18 36.91356 30.79672 196 ft 15 kts
2026-05-06 16:18 36.91462 30.79688 206 ft 16 kts
2026-05-06 16:18 36.91522 30.79750 204 ft 13 kts 84°
2026-05-06 16:18 36.91512 30.79865 196 ft 14 kts 96°
2026-05-06 16:19 36.91548 30.79928 198 ft 11 kts 12°
2026-05-06 16:19 36.91628 30.79941 196 ft 12 kts
2026-05-06 16:19 36.91717 30.79955 208 ft 13 kts
2026-05-06 16:19 36.91809 30.79980 207 ft 15 kts 51°
2026-05-06 16:20 36.91783 30.80094 200 ft 12 kts 127°
2026-05-06 16:20 36.91761 30.80180 196 ft 6 kts 96°
2026-05-06 16:20 36.91760 30.80191 196 ft 0 kts 95°